When you browse on this site, cookies collect data to enhance your experience and personalize the content and advertising you see.
Visit our Privacy Policy to learn more. By continuing to use the site, you agree to this use of cookies and data.

Hourly Weather Vorony

Today, 12 July, Sunday

Time Temperature Precipitation Wind Pressure Humidity
00:00 +14°C° 0 mm 2 mps 752 mmHg 80%
01:00 +13°C° 0 mm 2 mps 752 mmHg 84%
02:00 +12°C° 0 mm 1 mps 753 mmHg 92%
03:00 +12°C° 0 mm 1 mps 752 mmHg 91%
04:00 +12°C° 0 mm 1 mps 752 mmHg 91%
05:00 +12°C° 0 mm 2 mps 752 mmHg 90%
06:00 +13°C° 0 mm 1 mps 752 mmHg 85%
07:00 +14°C° 0 mm 1 mps 752 mmHg 80%
08:00 +16°C° 0 mm 1 mps 753 mmHg 75%
09:00 +18°C° 0.1 mm 1 mps 753 mmHg 70%
10:00 +19°C° 0.1 mm 1 mps 752 mmHg 65%
11:00 +20°C° 0.1 mm 1 mps 752 mmHg 61%
12:00 +21°C° 0.1 mm 1 mps 752 mmHg 59%
13:00 +21°C° 0.1 mm 1 mps 752 mmHg 57%
14:00 +21°C° 0.1 mm 1 mps 752 mmHg 55%
15:00 +20°C° 0.4 mm 1 mps 752 mmHg 65%
16:00 +18°C° 0.4 mm 2 mps 752 mmHg 75%
17:00 +17°C° 0.4 mm 2 mps 752 mmHg 85%
18:00 +16°C° 0.2 mm 2 mps 752 mmHg 88%
19:00 +15°C° 0.2 mm 2 mps 752 mmHg 90%
20:00 +14°C° 0.2 mm 1 mps 752 mmHg 92%
21:00 +14°C° 0 mm 1 mps 751 mmHg 93%
22:00 +13°C° 0 mm 1 mps 751 mmHg 95%
23:00 +12°C° 0 mm 1 mps 751 mmHg 96%

Tomorrow, 13 July, Monday

Time Temperature Precipitation Wind Pressure Humidity
00:00 +11°C° 0 mm 1 mps 751 mmHg 96%
01:00 +11°C° 0 mm 1 mps 751 mmHg 96%
02:00 +11°C° 0 mm 1 mps 751 mmHg 96%
03:00 +11°C° 0 mm 1 mps 751 mmHg 96%
04:00 +11°C° 0 mm 1 mps 751 mmHg 96%
05:00 +11°C° 0 mm 1 mps 751 mmHg 96%
06:00 +12°C° 0 mm 1 mps 751 mmHg 90%
07:00 +14°C° 0 mm 2 mps 751 mmHg 84%
08:00 +16°C° 0 mm 2 mps 751 mmHg 78%
09:00 +17°C° 0.1 mm 2 mps 751 mmHg 71%
10:00 +18°C° 0.1 mm 2 mps 750 mmHg 63%
11:00 +20°C° 0.1 mm 2 mps 750 mmHg 56%
12:00 +20°C° 0.2 mm 2 mps 750 mmHg 53%
13:00 +21°C° 0.2 mm 2 mps 750 mmHg 50%
14:00 +21°C° 0.2 mm 3 mps 750 mmHg 47%
15:00 +21°C° 0 mm 3 mps 750 mmHg 46%
16:00 +21°C° 0 mm 3 mps 749 mmHg 45%
17:00 +21°C° 0 mm 3 mps 749 mmHg 45%
18:00 +19°C° 0 mm 2 mps 749 mmHg 54%
19:00 +18°C° 0 mm 2 mps 749 mmHg 63%
20:00 +16°C° 0 mm 1 mps 749 mmHg 71%
21:00 +15°C° 0 mm 1 mps 749 mmHg 74%
22:00 +14°C° 0 mm 1 mps 749 mmHg 76%
23:00 +12°C° 0 mm 1 mps 749 mmHg 78%

Day after tomorrow, 14 July, Tuesday

Time Temperature Precipitation Wind Pressure Humidity
00:00 +12°C° 0 mm 1 mps 749 mmHg 81%
01:00 +11°C° 0 mm 1 mps 749 mmHg 84%
02:00 +11°C° 0 mm 1 mps 749 mmHg 87%
03:00 +11°C° 0 mm 1 mps 749 mmHg 88%
04:00 +11°C° 0 mm 1 mps 749 mmHg 88%
05:00 +11°C° 0 mm 1 mps 749 mmHg 89%
06:00 +13°C° 0 mm 2 mps 750 mmHg 81%
07:00 +15°C° 0 mm 2 mps 750 mmHg 73%
08:00 +17°C° 0 mm 2 mps 750 mmHg 65%
09:00 +19°C° 0 mm 2 mps 750 mmHg 58%
10:00 +20°C° 0 mm 2 mps 750 mmHg 51%
11:00 +21°C° 0 mm 2 mps 750 mmHg 44%
12:00 +22°C° 0 mm 3 mps 750 mmHg 43%
13:00 +22°C° 0 mm 3 mps 749 mmHg 42%
14:00 +24°C° 0 mm 3 mps 749 mmHg 41%
15:00 +22°C° 0 mm 3 mps 749 mmHg 42%
16:00 +22°C° 0 mm 3 mps 749 mmHg 43%
17:00 +22°C° 0 mm 3 mps 749 mmHg 43%
18:00 +20°C° 0 mm 3 mps 749 mmHg 52%
19:00 +18°C° 0 mm 2 mps 749 mmHg 61%
20:00 +17°C° 0 mm 2 mps 749 mmHg 70%
21:00 +15°C° 0 mm 2 mps 749 mmHg 70%
22:00 +14°C° 0 mm 1 mps 749 mmHg 71%
23:00 +12°C° 0 mm 1 mps 749 mmHg 72%

15 July, Wednesday

Time Temperature Precipitation Wind Pressure Humidity
00:00 +12°C° 0 mm 1 mps 749 mmHg 73%
01:00 +11°C° 0 mm 1 mps 749 mmHg 75%
02:00 +9°C° 0 mm 2 mps 749 mmHg 76%
03:00 +9°C° 0 mm 2 mps 749 mmHg 78%
04:00 +10°C° 0 mm 1 mps 749 mmHg 79%
05:00 +10°C° 0 mm 1 mps 749 mmHg 81%
06:00 +13°C° 0 mm 2 mps 749 mmHg 73%
07:00 +15°C° 0 mm 2 mps 749 mmHg 64%
08:00 +17°C° 0 mm 2 mps 749 mmHg 56%
09:00 +18°C° 0 mm 2 mps 749 mmHg 51%
10:00 +20°C° 0 mm 2 mps 749 mmHg 47%
11:00 +21°C° 0 mm 3 mps 749 mmHg 43%
12:00 +22°C° 0 mm 3 mps 748 mmHg 42%
13:00 +22°C° 0 mm 3 mps 748 mmHg 40%
14:00 +24°C° 0 mm 3 mps 748 mmHg 39%
15:00 +24°C° 0 mm 3 mps 748 mmHg 40%
16:00 +22°C° 0 mm 3 mps 748 mmHg 42%
17:00 +22°C° 0 mm 3 mps 747 mmHg 43%
18:00 +20°C° 0 mm 2 mps 747 mmHg 51%
19:00 +19°C° 0 mm 2 mps 747 mmHg 59%
20:00 +18°C° 0 mm 1 mps 747 mmHg 68%
21:00 +16°C° 0 mm 1 mps 747 mmHg 69%
22:00 +15°C° 0 mm 1 mps 747 mmHg 71%
23:00 +14°C° 0 mm 1 mps 747 mmHg 73%

16 July, Thursday

Time Temperature Precipitation Wind Pressure Humidity
00:00 +13°C° 0 mm 1 mps 747 mmHg 75%
01:00 +13°C° 0 mm 1 mps 747 mmHg 76%
02:00 +12°C° 0 mm 1 mps 747 mmHg 77%
03:00 +12°C° 0 mm 1 mps 747 mmHg 78%
04:00 +12°C° 0 mm 1 mps 746 mmHg 78%
05:00 +12°C° 0 mm 1 mps 746 mmHg 78%
06:00 +14°C° 0 mm 1 mps 746 mmHg 73%
07:00 +16°C° 0 mm 1 mps 746 mmHg 67%
08:00 +18°C° 0 mm 2 mps 746 mmHg 62%
09:00 +20°C° 0 mm 2 mps 746 mmHg 55%
10:00 +21°C° 0 mm 2 mps 746 mmHg 49%
11:00 +24°C° 0 mm 2 mps 745 mmHg 42%
12:00 +24°C° 0 mm 2 mps 745 mmHg 41%
13:00 +25°C° 0 mm 2 mps 745 mmHg 39%
14:00 +25°C° 0 mm 2 mps 744 mmHg 37%
15:00 +25°C° 0 mm 2 mps 744 mmHg 39%
16:00 +24°C° 0 mm 2 mps 744 mmHg 42%
17:00 +24°C° 0 mm 2 mps 744 mmHg 44%
18:00 +21°C° 0 mm 2 mps 744 mmHg 53%
19:00 +20°C° 0 mm 2 mps 744 mmHg 62%
20:00 +19°C° 0 mm 1 mps 744 mmHg 71%
21:00 +16°C° 0 mm 1 mps 744 mmHg 76%
22:00 +15°C° 0 mm 1 mps 744 mmHg 82%
23:00 +13°C° 0 mm 1 mps 744 mmHg 88%

17 July, Friday

Time Temperature Precipitation Wind Pressure Humidity
00:00 +13°C° 0 mm 1 mps 744 mmHg 91%
01:00 +12°C° 0 mm 1 mps 744 mmHg 93%
02:00 +12°C° 0 mm 1 mps 744 mmHg 96%
03:00 +12°C° 0 mm 1 mps 744 mmHg 96%
04:00 +12°C° 0 mm 1 mps 744 mmHg 95%
05:00 +12°C° 0 mm 1 mps 744 mmHg 95%
06:00 +14°C° 0 mm 2 mps 744 mmHg 85%
07:00 +16°C° 0 mm 2 mps 744 mmHg 75%
08:00 +18°C° 0 mm 2 mps 744 mmHg 65%
09:00 +19°C° 0 mm 2 mps 744 mmHg 58%
10:00 +21°C° 0 mm 2 mps 744 mmHg 52%
11:00 +23°C° 0 mm 2 mps 744 mmHg 46%
12:00 +23°C° 0 mm 2 mps 744 mmHg 46%
13:00 +23°C° 0 mm 2 mps 744 mmHg 46%
14:00 +23°C° 0 mm 2 mps 744 mmHg 46%
15:00 +23°C° 0 mm 2 mps 744 mmHg 45%
16:00 +23°C° 0 mm 2 mps 744 mmHg 44%
17:00 +24°C° 0 mm 2 mps 744 mmHg 44%
18:00 +21°C° 0 mm 2 mps 744 mmHg 51%
19:00 +19°C° 0 mm 2 mps 744 mmHg 58%
20:00 +17°C° 0 mm 2 mps 745 mmHg 64%
21:00 +16°C° 0 mm 2 mps 745 mmHg 67%
22:00 +15°C° 0 mm 2 mps 745 mmHg 70%
23:00 +13°C° 0 mm 1 mps 745 mmHg 72%
Show more